Weather History for Port Hedland, WE

Change the Weather History Date:

Tuesday, December 25, 2012

  Actual Average Record
Temperature  
Mean Temperature 94 °F -  
Max Temperature 107 °F 97 °F 111 °F (1998)
Min Temperature 81 °F 78 °F 73 °F (2002)
Cooling Degree Days 29    
Growing Degree Days 44 (Base 50)    
Moisture  
Dew Point 72 °F    
Average Humidity 54    
Maximum Humidity 84    
Minimum Humidity 12    
Precipitation  
Precipitation 0.01 in 0.07 in - ()
Sea Level Pressure  
Sea Level Pressure 29.71 in    
Wind  
Wind Speed 11 mph ()    
Max Wind Speed 25 mph    
Max Gust Speed 40 mph    
Visibility 7.3 miles    
Events Rain    
Averages and records for this station are not official NWS values.
T = Trace of Precipitation, MM = Missing Value Source: Averaged Metar Reports

Daily Weather History Graph

Daily Weather History Graph

Search for Another Location

Airport:

Trip Planner

Search our weather history database for the weather conditions in past years. The results will help you decide how hot, cold, wet, or windy it might be!

Date:

Astronomy

Dec. 25, 2012 Rise Set
Actual Time 5:24 AM AWST 6:46 PM AWST
Civil Twilight 4:59 AM AWST 7:11 PM AWST
Nautical Twilight 4:30 AM AWST 7:40 PM AWST
Astronomical Twilight 4:00 AM AWST 8:10 PM AWST
Moon 4:13 PM AWST (12/25) 2:47 AM AWST (12/25)
Length of Visible Light 14h 11m
Length of Day
13h 22m
Waxing Gibbous, 91% of the Moon is Illuminated
Dec 25
Waxing Gibbous
Dec 28
Full
Jan 5
Last Quarter
Jan 12
New
Jan 19
First Quarter

Hourly Weather History & Observations

Time (AWST) Temp. Heat Index Dew Point Humidity Pressure Visibility Wind Dir Wind Speed Gust Speed Precip Events Conditions
12:00 AM 85 °F - 77 °F 70% 29.70 in - West 8.1 mph - -  
12:00 AM 86.0 °F 96.9 °F 77.0 °F 74% 29.68 in 6.2 mi West 8.1 mph - N/A   Unknown
12:30 AM 86.0 °F 96.9 °F 77.0 °F 74% 29.71 in 6.2 mi East 9.2 mph - N/A Rain Light Rain Showers
1:00 AM 84.2 °F 96.1 °F 78.8 °F 84% 29.68 in 6.2 mi South 8.1 mph - N/A Rain Light Rain Showers
1:30 AM 84.2 °F 96.1 °F 78.8 °F 84% 29.68 in 6.2 mi SW 8.1 mph - N/A   Unknown
1:56 AM 86.0 °F 95.1 °F 75.2 °F 70% 29.74 in 6.2 mi ESE 16.1 mph - N/A   Scattered Clouds
2:00 AM 86 °F - 71 °F 52% 29.76 in - ESE 18.4 mph - -  
2:00 AM 86.0 °F 91.8 °F 71.6 °F 62% 29.74 in 6.2 mi ESE 18.4 mph 29.9 mph N/A   Drizzle
2:05 AM 86.0 °F 90.4 °F 69.8 °F 58% 29.74 in 3.7 mi ESE 25.3 mph 40.3 mph N/A   Drizzle
2:25 AM 82.4 °F 87.2 °F 71.6 °F 70% 29.74 in 6.2 mi ESE 20.7 mph - N/A Rain Light Rain Showers
2:30 AM 82.4 °F 88.2 °F 73.4 °F 74% 29.74 in 6.2 mi ESE 18.4 mph - N/A Rain Light Rain Showers
3:00 AM 83 °F - 70 °F 57% 29.73 in - SE 12.7 mph - -  
3:00 AM 84.2 °F 88.4 °F 69.8 °F 62% 29.71 in 6.2 mi SE 12.7 mph - N/A   Unknown
3:30 AM 84.2 °F 88.4 °F 69.8 °F 62% 29.71 in 6.2 mi South 10.4 mph - N/A   Unknown
4:00 AM 84.2 °F 88.4 °F 69.8 °F 62% 29.71 in 6.2 mi South 11.5 mph - N/A   Unknown
4:30 AM 86.0 °F 88.2 °F 66.2 °F 51% 29.71 in 6.2 mi South 12.7 mph - N/A   Unknown
5:00 AM 85 °F - 67 °F 44% 29.71 in - SSW 10.4 mph - -  
5:00 AM 84.2 °F 86.6 °F 66.2 °F 55% 29.71 in 6.2 mi SSW 10.4 mph - N/A   Unknown
5:30 AM 84.2 °F 87.3 °F 68.0 °F 58% 29.71 in 6.2 mi South 10.4 mph - N/A   Unknown
6:00 AM 84 °F - 68 °F 50% 29.74 in 19 mi South 8.1 mph - - Rain Light Rain Showers
6:00 AM 84.2 °F 87.3 °F 68.0 °F 58% 29.74 in 6.2 mi South 8.1 mph - N/A Rain Light Rain Showers
6:30 AM 84.2 °F 88.4 °F 69.8 °F 62% 29.77 in 6.2 mi ENE 8.1 mph - N/A Rain Light Rain Showers
7:00 AM 87.8 °F 91.4 °F 68.0 °F 52% 29.80 in 6.2 mi ENE 11.5 mph - N/A Rain Light Rain Showers
7:30 AM 87.8 °F 97.6 °F 75.2 °F 66% 29.80 in 6.2 mi NNE 20.7 mph - N/A   Scattered Clouds
8:00 AM 86 °F - 76 °F 64% 29.81 in - NNE 21.9 mph - -  
8:00 AM 86.0 °F 95.1 °F 75.2 °F 70% 29.80 in 6.2 mi NNE 21.9 mph - N/A Rain Light Rain
8:30 AM 87.8 °F 99.7 °F 77.0 °F 70% 29.80 in 6.2 mi NNE 17.3 mph - N/A   Mostly Cloudy
9:00 AM 89 °F - 78 °F 62% 29.81 in 19 mi NNE 13.8 mph - -   Mostly Cloudy
9:00 AM 89.6 °F 102.2 °F 77.0 °F 66% 29.80 in 6.2 mi NNE 13.8 mph - N/A   Mostly Cloudy
9:30 AM 89.6 °F 102.2 °F 77.0 °F 66% 29.80 in 6.2 mi NNE 10.4 mph - N/A   Mostly Cloudy
10:00 AM 93.2 °F 98.8 °F 69.8 °F 46% 29.80 in 6.2 mi NE 11.5 mph - N/A   Scattered Clouds
10:30 AM 93.2 °F 98.8 °F 69.8 °F 46% 29.77 in - NE 10.4 mph - N/A   Clear
11:00 AM 96 °F - 67 °F 29% 29.78 in - East 11.5 mph - -  
11:00 AM 95.0 °F 98.5 °F 66.2 °F 39% 29.77 in - East 11.5 mph - N/A   Clear
11:30 AM 98.6 °F 100.0 °F 62.6 °F 30% 29.74 in - ESE 11.5 mph - N/A   Clear
12:00 PM 100 °F - 64 °F 21% 29.74 in 19 mi SE 12.7 mph - -   Mostly Cloudy
12:00 PM 100.4 °F 103.6 °F 64.4 °F 31% 29.74 in - SE 12.7 mph - N/A   Clear
12:30 PM 98.6 °F 104.1 °F 68.0 °F 37% 29.71 in - East 12.7 mph - N/A   Clear
1:00 PM 100.4 °F 101.3 °F 60.8 °F 27% 29.68 in - ESE 12.7 mph - N/A   Clear
1:30 PM 104.0 °F 105.3 °F 60.8 °F 24% 29.68 in - SSE 12.7 mph - N/A   Clear
2:00 PM 107 °F - 57 °F 12% 29.66 in - SE 6.9 mph - -  
2:00 PM 107.6 °F 107.5 °F 57.2 °F 19% 29.65 in - SE 6.9 mph - N/A   Clear
2:30 PM 104.0 °F 110.5 °F 68.0 °F 31% 29.65 in - NNW 5.8 mph - N/A   Clear
3:00 PM 104 °F - 69 °F 24% 29.64 in 19 mi NW 12.7 mph - -   Partly Cloudy
3:00 PM 104.0 °F 112.2 °F 69.8 °F 33% 29.62 in - NW 12.7 mph - N/A   Clear
3:30 PM 105.8 °F 111.5 °F 66.2 °F 28% 29.62 in 6.2 mi NW 9.2 mph - N/A   Unknown
4:00 PM 104.0 °F 110.5 °F 68.0 °F 31% 29.62 in 6.2 mi North 12.7 mph - N/A   Unknown
4:30 PM 102.2 °F 108.4 °F 68.0 °F 33% 29.59 in 6.2 mi NW 12.7 mph - N/A   Unknown
5:00 PM 102 °F - 70 °F 26% 29.62 in - WNW 13.8 mph - -  
5:00 PM 102.2 °F 110.0 °F 69.8 °F 35% 29.59 in 6.2 mi WNW 13.8 mph - N/A   Unknown
5:30 PM 100.4 °F 107.8 °F 69.8 °F 37% 29.59 in 6.2 mi WNW 15.0 mph - N/A   Unknown
6:00 PM 98 °F - 69 °F 29% 29.62 in - WNW 16.1 mph - -  
6:00 PM 98.6 °F 104.1 °F 68.0 °F 37% 29.62 in 6.2 mi WNW 16.1 mph - N/A   Unknown
6:30 PM 96.8 °F 103.1 °F 69.8 °F 41% 29.62 in 6.2 mi WNW 13.8 mph - N/A   Unknown
7:00 PM 91.4 °F 105.1 °F 77.0 °F 63% 29.65 in 6.2 mi North 15.0 mph - N/A   Unknown
7:30 PM 91.4 °F 100.1 °F 73.4 °F 55% 29.65 in 6.2 mi North 10.4 mph - N/A   Unknown
8:00 PM 91 °F - 78 °F 58% 29.70 in - North 10.4 mph - -  
8:00 PM 91.4 °F 107.2 °F 78.8 °F 66% 29.68 in 6.2 mi North 10.4 mph - N/A   Unknown
8:30 PM 89.6 °F 108.2 °F 80.6 °F 75% 29.71 in 6.2 mi North 11.5 mph - N/A   Unknown
9:00 PM 88 °F - 81 °F 74% 29.73 in - North 10.4 mph - -  
9:00 PM 87.8 °F 104.9 °F 80.6 °F 79% 29.71 in 6.2 mi North 10.4 mph - N/A   Unknown
9:30 PM 87.8 °F 104.9 °F 80.6 °F 79% 29.71 in 6.2 mi NW 15.0 mph - N/A   Unknown
10:00 PM 87.8 °F 104.9 °F 80.6 °F 79% 29.74 in 6.2 mi NW 11.5 mph - N/A   Unknown
10:30 PM 87.8 °F 104.9 °F 80.6 °F 79% 29.74 in 6.2 mi WNW 11.5 mph - N/A   Unknown
11:00 PM 87 °F - 80 °F 76% 29.74 in - WNW 11.5 mph - -  
11:00 PM 87.8 °F 104.9 °F 80.6 °F 79% 29.74 in 6.2 mi WNW 11.5 mph - N/A   Unknown
11:30 PM 87.8 °F 104.9 °F 80.6 °F 79% 29.74 in 6.2 mi West 10.4 mph - N/A   Unknown